Regional Weather Roundup
Issued by NWS Goodland, KS

Home | Current Version | Previous Version | Text Only | Print | Product List | Glossary Off
Versions: 1 2 3 4 5 6 7 8 9 10 11 12 13 14 15 16 17 18 19 20 21 22 23 24 25 26 27 28 29 30 31 32 33 34 35 36 37 38 39 40 41 42 43 44 45 46 47 48 49 50

000
ASUS43 KGLD 180008
RWRGLD

GOODLAND FORECAST AREA HOURLY WEATHER ROUNDUP
NATIONAL WEATHER SERVICE GOODLAND KS
500 PM MST WED DEC 17 2014

...OFFICIAL OBSERVATIONS...

CITY           SKY/WX    TMP DP  RH WIND       PRES   REMARKS
GOODLAND KS    FOG       24  23  96 E8        30.02S VSB 1/2
HILL CITY KS   CLOUDY    28  23  81 NE8       30.12R
IMPERIAL NEB   CLOUDY    24  20  84 S8        30.06R FOG
MCCOOK NEB     CLOUDY    24  22  91 E7        30.11R FOG
AKRON CO       CLOUDY    23  22  96 SE7       29.95S
BURLINGTON CO  CLOUDY    25  23  92 SE6       29.98S FOG
LIMON CO       CLOUDY    32  25  75 CALM      29.91S
$$

...UNOFFICIAL OBSERVATIONS...

CITY           SKY/WX    TMP DP  RH WIND       PRES   REMARKS
GOVE KS          N/A     30  32 100 MISG        N/A
SHARON SPRINGS   N/A     26  25  95 CALM        N/A
TRIBUNE KS     CLOUDY    30  30 100 NE13      30.00R
KIT CARSON CO    N/A     24  22  92 MISG        N/A
$$


USA.gov is the U.S. government's official web portal to all federal, state and local government web resources and services.